Back to catalog

STARLINK-36614

AliveCommunicationsVLEO
NORAD 67622·PAYLOAD·🇺🇸 United States

Launched Jan 30, 2026 from Cape Canaveral Space Force Station

Loading…

Next Passes (next 24 hours)

TLE

FreshSource: CelesTrak SupGP

Epoch: Sep 15, 2026, 03:39 UTC

1 67622C 26020F   26258.15256944  .00059500  00000+0  21552-2 0  2585
2 67622  42.9995 149.8790 0001536 275.8150 260.5737 15.27546385    11

Track STARLINK-36614 in real time with AllMySat

Download on the App Store